Location: Unspecified
(0.0000°N, 0.0000°E)
Time: 11:01:44
(UTC+00:00)

NOSS 3-1 (A) - Pass Details

Date: 30 April 2019
Orbit: 778 x 1434 km, 63.4° (Epoch: 13 May)

Event Time Altitude Azimuth Distance (km) Brightness Sun altitude
Rises 04:42:12 0° 309° (NW) 4,457 6.6 -18.1°
Enters shadow 04:42:53 - 307° (NW) 4,267 6.5 -18.0°
Exits shadow 04:48:13 17° 283° (WNW) 3,013 5.5 -16.7°
Maximum altitude 04:52:27 24° 247° (WSW) 2,599 5.1 -15.7°
Drops below altitude 10° 04:59:04 10° 197° (SSW) 3,469 6.1 -14.1°
Sets 05:02:38 0° 183° (S) 4,379 6.7 -13.2°
